| time (UTC) | temp F | wind direction | speed knots | gust knots | rain 1hr in | rain 24hr in | rain mn in | humidity % | barometer mb |
| 20260506135537 | 59 | 106 | 1.7 | 5.2 | 0.00 | 0.38 | 0.28 | 76 | 1011.2 |
| 20260506135037 | 59 | 99 | 0.0 | 5.2 | 0.00 | 0.38 | 0.28 | 77 | 1011.2 |
| 20260506134537 | 59 | 82 | 1.7 | 3.5 | 0.00 | 0.38 | 0.28 | 80 | 1011.3 |
| 20260506134037 | 58 | 74 | 1.7 | 3.5 | 0.00 | 0.38 | 0.28 | 79 | 1011.2 |
| 20260506133037 | 58 | 76 | 0.9 | 3.5 | 0.00 | 0.50 | 0.28 | 79 | 1011.3 |
| 20260506132537 | 58 | 87 | 0.9 | 3.5 | 0.00 | 0.50 | 0.28 | 81 | 1011.3 |
| 20260506132037 | 58 | 86 | 0.0 | 7.0 | 0.00 | 0.50 | 0.28 | 82 | 1011.3 |
| 20260506131537 | 57 | 81 | 1.7 | 7.0 | 0.00 | 0.50 | 0.28 | 82 | 1011.3 |
| 20260506131037 | 57 | 70 | 1.7 | 6.1 | 0.00 | 0.50 | 0.28 | 81 | 1011.3 |
| 20260506130537 | 58 | 66 | 1.7 | 3.5 | 0.00 | 0.54 | 0.28 | 82 | 1011.3 |
| 20260506130037 | 57 | 72 | 1.7 | 3.5 | 0.00 | 0.54 | 0.28 | 80 | 1011.2 |
| 20260506125537 | 57 | 66 | 1.7 | 3.5 | 0.00 | 0.54 | 0.28 | 82 | 1011.3 |
| 20260506125037 | 57 | 49 | 1.7 | 3.5 | 0.00 | 0.54 | 0.28 | 83 | 1011.1 |
| 20260506124537 | 57 | 42 | 0.9 | 3.5 | 0.00 | 0.54 | 0.28 | 85 | 1011.0 |
| 20260506124038 | 57 | 56 | 1.7 | 5.2 | 0.00 | 0.54 | 0.28 | 84 | 1011.1 |
| 20260506123037 | 57 | 82 | 0.9 | 3.5 | 0.00 | 0.58 | 0.28 | 85 | 1011.0 |
| 20260506122537 | 57 | 84 | 0.0 | 6.1 | 0.00 | 0.58 | 0.28 | 86 | 1011.1 |
| 20260506121037 | 57 | 64 | 1.7 | 3.5 | 0.00 | 0.58 | 0.28 | 85 | 1011.1 |
| 20260506120537 | 56 | 52 | 1.7 | 3.5 | 0.00 | 0.63 | 0.28 | 83 | 1010.9 |
| 20260506120037 | 58 | 44 | 0.0 | 3.5 | 0.00 | 0.63 | 0.28 | 87 | 1011.1 |
| 20260506115537 | 56 | 57 | 0.9 | 3.5 | 0.00 | 0.63 | 0.28 | 84 | 1011.0 |
| 20260506115037 | 57 | 71 | 0.9 | 3.5 | 0.00 | 0.63 | 0.28 | 88 | 1011.0 |
| 20260506114537 | 56 | 72 | 1.7 | 3.5 | 0.00 | 0.63 | 0.28 | 87 | 1011.2 |
| 20260506114037 | 55 | 74 | 1.7 | 7.8 | 0.00 | 0.63 | 0.28 | 88 | 1011.2 |
| 20260506113537 | 55 | 74 | 1.7 | 7.8 | 0.00 | 0.67 | 0.28 | 88 | 1011.0 |
| 20260506113037 | 55 | 62 | 1.7 | 3.5 | 0.00 | 0.67 | 0.28 | 89 | 1011.1 |
| 20260506112536 | 54 | 55 | 1.7 | 3.5 | 0.00 | 0.67 | 0.28 | 89 | 1011.3 |
| 20260506112037 | 55 | 66 | 0.0 | 6.1 | 0.00 | 0.67 | 0.28 | 92 | 1011.0 |
| 20260506111537 | 54 | 68 | 0.9 | 6.1 | 0.00 | 0.67 | 0.28 | 91 | 1011.0 |
| 20260506111037 | 54 | 66 | 1.7 | 3.5 | 0.00 | 0.67 | 0.28 | 90 | 1011.0 |
| 20260506110537 | 54 | 56 | 1.7 | 5.2 | 0.00 | 0.72 | 0.28 | 91 | 1011.1 |
| 20260506110037 | 54 | 65 | 0.9 | 7.0 | 0.00 | 0.72 | 0.28 | 93 | 1011.3 |
| 20260506105537 | 54 | 68 | 1.7 | 7.0 | 0.00 | 0.72 | 0.28 | 93 | 1011.2 |
| 20260506105037 | 54 | 45 | 1.7 | 5.2 | 0.00 | 0.72 | 0.28 | 95 | 1011.0 |
| 20260506104036 | 54 | 61 | 0.9 | 3.5 | 0.00 | 0.72 | 0.28 | 96 | 1010.9 |
| 20260506103537 | 53 | 44 | 0.9 | 5.2 | 0.00 | 0.77 | 0.28 | 96 | 1010.7 |
| 20260506103037 | 53 | 55 | 0.9 | 5.2 | 0.00 | 0.77 | 0.28 | 97 | 1011.0 |
| 20260506102537 | 52 | 64 | 0.9 | 3.5 | 0.00 | 0.77 | 0.28 | 97 | 1010.6 |
| 20260506102037 | 51 | 62 | 1.7 | 3.5 | 0.00 | 0.77 | 0.28 | 98 | 1010.9 |
| 20260506101537 | 52 | 46 | 0.9 | 3.5 | 0.00 | 0.77 | 0.28 | 99 | 1010.9 |
| 20260506100537 | 52 | 57 | 1.7 | 3.5 | 0.00 | 0.83 | 0.28 | 99 | 1010.9 |
| 20260506100037 | 51 | 57 | 0.9 | 3.5 | 0.00 | 0.83 | 0.28 | 99 | 1010.5 |
| 20260506095537 | 52 | 47 | 0.9 | 6.1 | 0.00 | 0.83 | 0.28 | 99 | 1010.4 |
| 20260506095037 | 51 | 51 | 1.7 | 6.1 | 0.00 | 0.83 | 0.28 | 99 | 1010.7 |
| 20260506094037 | 51 | 63 | 0.0 | 3.5 | 0.00 | 0.83 | 0.28 | 99 | 1010.4 |
| 20260506093537 | 50 | 60 | 1.7 | 3.5 | 0.00 | 1.04 | 0.28 | 99 | 1010.5 |
| 20260506092537 | 51 | 61 | 0.9 | 3.5 | 0.00 | 1.04 | 0.28 | 99 | 1010.3 |
| 20260506092037 | 51 | 53 | 0.9 | 3.5 | 0.00 | 1.04 | 0.28 | 99 | 1010.3 |
| 20260506091537 | 51 | 47 | 0.9 | 3.5 | 0.00 | 1.04 | 0.28 | 99 | 1010.3 |
| 20260506091037 | 51 | 58 | 0.9 | 3.5 | 0.00 | 1.04 | 0.28 | 99 | 1010.2 |
| 20260506090537 | 51 | 56 | 0.0 | 1.7 | 0.00 | 1.31 | 0.28 | 99 | 1010.3 |
| 20260506090037 | 51 | 57 | 0.0 | 3.5 | 0.00 | 1.31 | 0.28 | 99 | 1010.2 |
| 20260506085536 | 50 | 54 | 0.9 | 3.5 | 0.01 | 1.31 | 0.28 | 99 | 1010.0 |
| 20260506085037 | 51 | 43 | 0.0 | 3.5 | 0.01 | 1.31 | 0.28 | 99 | 1009.9 |
| 20260506084537 | 51 | 34 | 0.9 | 3.5 | 0.01 | 1.31 | 0.28 | 99 | 1010.0 |
| 20260506084037 | 50 | 34 | 1.7 | 3.5 | 0.01 | 1.31 | 0.28 | 99 | 1009.9 |
| 20260506083537 | 50 | 62 | 0.0 | 3.5 | 0.01 | 1.51 | 0.28 | 99 | 1009.8 |
| 20260506083037 | 50 | 58 | 0.0 | 3.5 | 0.01 | 1.51 | 0.28 | 99 | 1010.0 |
| 20260506082537 | 50 | 48 | 0.9 | 3.5 | 0.01 | 1.51 | 0.28 | 99 | 1010.2 |
| 20260506082037 | 51 | 51 | 0.9 | 1.7 | 0.01 | 1.64 | 0.28 | 99 | 1010.1 |
| 20260506081036 | 51 | 63 | 0.0 | 3.5 | 0.01 | 1.68 | 0.28 | 99 | 1009.9 |
| 20260506073037 | 49 | 54 | 0.9 | 3.5 | 0.01 | 2.00 | 0.27 | 99 | 1009.7 |
| 20260506072537 | 50 | 41 | 1.7 | 3.5 | 0.02 | 2.03 | 0.27 | 99 | 1009.3 |
| 20260506071537 | 50 | 35 | 0.0 | 1.7 | 0.02 | 2.07 | 0.27 | 99 | 1009.5 |
| 20260506071037 | 50 | 47 | 0.0 | 1.7 | 0.02 | 2.08 | 0.27 | 99 | 1009.3 |
| 20260506070537 | 50 | 60 | 0.0 | 1.7 | 0.02 | 2.10 | 0.27 | 99 | 1009.2 |
| 20260506062037 | 50 | 68 | 0.0 | 3.5 | 0.00 | 2.24 | 0.25 | 99 | 1008.9 |
| 20260506061537 | 50 | 52 | 0.0 | 1.7 | 0.00 | 2.26 | 0.25 | 99 | 1008.9 |
| 20260506061037 | 50 | 35 | 0.0 | 1.7 | 0.00 | 2.27 | 0.25 | 99 | 1008.7 |
| 20260506060537 | 50 | 17 | 0.0 | 1.7 | 0.00 | 2.28 | 0.25 | 99 | 1008.7 |
| 20260506051037 | 51 | 0 | 0.0 | 0.0 | 0.00 | 2.36 | 0.25 | 99 | 1008.4 |
| 20260506050537 | 51 | 0 | 0.0 | 0.0 | 0.00 | 2.39 | 0.25 | 99 | 1008.2 |
| 20260506045037 | 51 | 0 | 0.0 | 0.0 | 0.00 | 2.47 | 0.25 | 99 | 1008.1 |
| 20260506044537 | 51 | 0 | 0.0 | 0.0 | 0.00 | 2.47 | 0.25 | 99 | 1008.1 |
| 20260506044037 | 51 | 0 | 0.0 | 0.0 | 0.00 | 2.47 | 0.25 | 99 | 1007.8 |
| 20260506043537 | 51 | 0 | 0.0 | 0.0 | 0.00 | 2.47 | 0.25 | 99 | 1008.1 |
| 20260506043037 | 51 | 0 | 0.0 | 0.0 | 0.00 | 2.47 | 0.25 | 99 | 1008.1 |
| 20260506042037 | 51 | 0 | 0.0 | 0.0 | 0.00 | 2.47 | 0.25 | 99 | 1007.9 |
| 20260506041537 | 51 | 0 | 0.0 | 0.0 | 0.00 | 2.48 | 0.25 | 99 | 1007.8 |
| 20260506041037 | 51 | 0 | 0.0 | 0.0 | 0.00 | 2.48 | 0.25 | 99 | 1008.0 |
| 20260506040537 | 51 | 68 | 0.0 | 1.7 | 0.00 | 2.48 | 0.25 | 99 | 1007.9 |
| 20260506040037 | 51 | 54 | 0.0 | 1.7 | 0.00 | 2.49 | 0.25 | 99 | 1008.0 |
| 20260506035537 | 51 | 45 | 0.0 | 1.7 | 0.00 | 2.49 | 0.25 | 99 | 1008.2 |
| 20260506035037 | 51 | 45 | 0.0 | 1.7 | 0.00 | 2.49 | 0.25 | 99 | 1007.8 |
| 20260506034037 | 51 | 0 | 0.0 | 0.0 | 0.00 | 2.50 | 0.25 | 99 | 1007.9 |
| 20260506033537 | 51 | 0 | 0.0 | 0.0 | 0.01 | 2.50 | 0.25 | 99 | 1008.2 |
| 20260506032537 | 51 | 0 | 0.0 | 0.0 | 0.01 | 2.50 | 0.25 | 99 | 1008.2 |
| 20260506032037 | 51 | 0 | 0.0 | 0.0 | 0.01 | 2.50 | 0.25 | 99 | 1008.1 |
| 20260506031037 | 51 | 0 | 0.0 | 0.0 | 0.02 | 2.50 | 0.25 | 99 | 1008.2 |
| 20260506030537 | 51 | 0 | 0.0 | 0.0 | 0.02 | 2.50 | 0.25 | 99 | 1008.2 |
| 20260506030037 | 51 | 0 | 0.0 | 0.0 | 0.02 | 2.50 | 0.25 | 99 | 1008.1 |
| 20260506025037 | 51 | 0 | 0.0 | 0.0 | 0.04 | 2.52 | 0.25 | 99 | 1008.2 |
| 20260506024537 | 51 | 0 | 0.0 | 0.0 | 0.05 | 2.52 | 0.25 | 99 | 1008.1 |
| 20260506024037 | 51 | 0 | 0.0 | 0.0 | 0.06 | 2.52 | 0.25 | 99 | 1008.3 |
| 20260506023537 | 51 | 0 | 0.0 | 0.0 | 0.06 | 2.50 | 0.24 | 99 | 1008.3 |
| 20260506023037 | 51 | 0 | 0.0 | 0.0 | 0.08 | 2.50 | 0.24 | 99 | 1008.0 |
| 20260506022537 | 51 | 0 | 0.0 | 0.0 | 0.13 | 2.50 | 0.24 | 99 | 1008.4 |
| 20260506022037 | 51 | 0 | 0.0 | 0.0 | 0.18 | 2.50 | 0.24 | 99 | 1008.3 |
| 20260506021037 | 51 | 0 | 0.0 | 0.0 | 0.19 | 2.49 | 0.22 | 99 | 1008.3 |
| 20260506020537 | 51 | 0 | 0.0 | 0.0 | 0.20 | 2.49 | 0.22 | 99 | 1008.3 |
| 20260506020037 | 51 | 0 | 0.0 | 0.0 | 0.21 | 2.49 | 0.22 | 99 | 1008.3 |
| 20260506015536 | 51 | 0 | 0.0 | 0.0 | 0.20 | 2.48 | 0.21 | 99 | 1008.3 |
| 20260506015037 | 51 | 0 | 0.0 | 0.0 | 0.20 | 2.48 | 0.21 | 99 | 1008.3 |
| 20260506014537 | 51 | 0 | 0.0 | 0.0 | 0.19 | 2.47 | 0.20 | 99 | 1008.3 |
| 20260506013537 | 51 | 0 | 0.0 | 0.0 | 0.18 | 2.44 | 0.18 | 99 | 1008.5 |
| 20260506013037 | 51 | 0 | 0.0 | 0.0 | 0.14 | 2.41 | 0.14 | 99 | 1008.4 |
| 20260506012537 | 51 | 0 | 0.0 | 0.0 | 0.11 | 2.37 | 0.11 | 99 | 1008.4 |
| 20260506012037 | 51 | 0 | 0.0 | 0.0 | 0.06 | 2.33 | 0.06 | 99 | 1008.2 |
| 20260506011537 | 52 | 0 | 0.0 | 0.0 | 0.05 | 2.31 | 0.05 | 99 | 1008.3 |
| 20260506011037 | 52 | 0 | 0.0 | 0.0 | 0.04 | 2.30 | 0.04 | 99 | 1008.5 |
| 20260506010537 | 52 | 0 | 0.0 | 0.0 | 0.02 | 2.29 | 0.02 | 99 | 1008.4 |
| 20260506005536 | 51 | 0 | 0.0 | 0.0 | 0.01 | 2.28 | 0.01 | 99 | 1008.3 |
| 20260506005037 | 51 | 0 | 0.0 | 0.0 | 0.01 | 2.28 | 0.01 | 99 | 1008.3 |
| 20260506004537 | 51 | 0 | 0.0 | 0.0 | 0.00 | 2.27 | 0.00 | 99 | 1008.5 |
| 20260506004037 | 52 | 0 | 0.0 | 0.0 | 0.00 | 2.27 | 0.00 | 99 | 1008.4 |
| 20260506003537 | 52 | 0 | 0.0 | 0.0 | 0.00 | 2.27 | 0.00 | 99 | 1008.5 |
| 20260506002537 | 52 | 0 | 0.0 | 0.0 | 0.00 | 2.27 | 0.00 | 99 | 1008.5 |
| 20260506002037 | 52 | 0 | 0.0 | 0.0 | 0.00 | 2.27 | 0.00 | 99 | 1008.6 |
| 20260506001537 | 52 | 0 | 0.0 | 0.0 | 0.00 | 2.27 | 0.00 | 99 | 1008.7 |
| 20260506000037 | 52 | 0 | 0.0 | 0.0 | 0.00 | 2.27 | 0.00 | 99 | 1008.6 |
| 20260505235537 | 52 | 0 | 0.0 | 0.0 | 0.00 | 2.27 | 0.00 | 99 | 1008.6 |
| 20260505235036 | 52 | 0 | 0.0 | 0.0 | 0.00 | 2.27 | 0.00 | 99 | 1008.7 |
| 20260505234537 | 52 | 0 | 0.0 | 0.0 | 0.00 | 2.27 | 0.00 | 99 | 1008.6 |
| 20260505233537 | 52 | 0 | 0.0 | 0.0 | 0.00 | 2.27 | 0.00 | 99 | 1008.5 |
| 20260505233037 | 52 | 0 | 0.0 | 0.0 | 0.00 | 2.27 | 0.00 | 99 | 1008.9 |
| 20260505232037 | 52 | 0 | 0.0 | 0.0 | 0.00 | 2.27 | 0.00 | 99 | 1008.6 |
| 20260505231536 | 52 | 0 | 0.0 | 0.0 | 0.00 | 2.27 | 0.00 | 99 | 1008.6 |
| 20260505230537 | 52 | 0 | 0.0 | 0.0 | 0.00 | 2.27 | 0.00 | 99 | 1008.8 |
| 20260505230037 | 52 | 0 | 0.0 | 0.0 | 0.00 | 2.27 | 0.00 | 99 | 1008.9 |
| 20260505225537 | 52 | 0 | 0.0 | 0.0 | 0.00 | 2.27 | 0.00 | 99 | 1008.8 |
| 20260505225037 | 52 | 0 | 0.0 | 0.0 | 0.00 | 2.27 | 0.00 | 99 | 1008.9 |
| 20260505224537 | 52 | 0 | 0.0 | 0.0 | 0.00 | 2.27 | 0.00 | 99 | 1008.8 |
| 20260505224037 | 52 | 0 | 0.0 | 0.0 | 0.00 | 2.27 | 0.00 | 99 | 1009.0 |
| 20260505223537 | 52 | 0 | 0.0 | 0.0 | 0.00 | 2.27 | 0.00 | 99 | 1009.0 |
| 20260505223037 | 52 | 0 | 0.0 | 0.0 | 0.00 | 2.27 | 0.00 | 99 | 1008.9 |
| 20260505222037 | 52 | 0 | 0.0 | 0.0 | 0.00 | 2.27 | 0.00 | 99 | 1008.9 |
| 20260505221037 | 52 | 0 | 0.0 | 0.0 | 0.00 | 2.27 | 0.00 | 99 | 1009.1 |
| 20260505220537 | 52 | 0 | 0.0 | 0.0 | 0.00 | 2.27 | 0.00 | 99 | 1009.0 |
| 20260505220038 | 52 | 0 | 0.0 | 0.0 | 0.00 | 2.27 | 0.00 | 99 | 1009.0 |
| 20260505215537 | 52 | 0 | 0.0 | 0.0 | 0.00 | 2.27 | 2.27 | 99 | 1009.0 |
| 20260505215037 | 52 | 0 | 0.0 | 0.0 | 0.00 | 2.27 | 2.27 | 99 | 1009.1 |
| 20260505214537 | 52 | 0 | 0.0 | 0.0 | 0.00 | 2.27 | 2.27 | 99 | 1009.0 |
| 20260505214036 | 52 | 0 | 0.0 | 0.0 | 0.00 | 2.27 | 2.27 | 99 | 1008.8 |
| 20260505213537 | 52 | 0 | 0.0 | 0.0 | 0.00 | 2.27 | 2.27 | 99 | 1008.8 |
| 20260505213037 | 52 | 0 | 0.0 | 0.0 | 0.00 | 2.27 | 2.27 | 99 | 1008.8 |
| 20260505212537 | 52 | 0 | 0.0 | 0.0 | 0.00 | 2.27 | 2.27 | 99 | 1008.7 |
| 20260505212037 | 52 | 0 | 0.0 | 0.0 | 0.00 | 2.27 | 2.27 | 99 | 1008.6 |
| 20260505211537 | 52 | 0 | 0.0 | 0.0 | 0.00 | 2.27 | 2.27 | 99 | 1008.8 |
| 20260505211037 | 52 | 0 | 0.0 | 0.0 | 0.00 | 2.27 | 2.27 | 99 | 1008.6 |
| 20260505210537 | 52 | 0 | 0.0 | 0.0 | 0.00 | 2.27 | 2.27 | 99 | 1008.7 |
| 20260505205537 | 52 | 0 | 0.0 | 0.0 | 0.01 | 2.27 | 2.27 | 99 | 1008.7 |
| 20260505205037 | 52 | 0 | 0.0 | 0.0 | 0.01 | 2.27 | 2.27 | 99 | 1008.8 |
| 20260505204037 | 52 | 0 | 0.0 | 0.0 | 0.01 | 2.27 | 2.27 | 99 | 1009.0 |
| 20260505203537 | 52 | 0 | 0.0 | 0.0 | 0.01 | 2.27 | 2.27 | 99 | 1008.9 |
| 20260505203037 | 52 | 0 | 0.0 | 0.0 | 0.01 | 2.27 | 2.27 | 99 | 1008.8 |
| 20260505202536 | 52 | 0 | 0.0 | 0.0 | 0.01 | 2.27 | 2.27 | 99 | 1008.8 |
| 20260505202037 | 52 | 0 | 0.0 | 0.0 | 0.01 | 2.27 | 2.27 | 99 | 1008.7 |
| 20260505201537 | 52 | 0 | 0.0 | 0.0 | 0.01 | 2.27 | 2.27 | 99 | 1008.9 |
| 20260505201037 | 52 | 0 | 0.0 | 0.0 | 0.01 | 2.27 | 2.27 | 99 | 1008.9 |
| 20260505200537 | 53 | 0 | 0.0 | 0.0 | 0.01 | 2.27 | 2.27 | 99 | 1008.9 |
| 20260505195537 | 53 | 0 | 0.0 | 0.0 | 0.00 | 2.26 | 2.26 | 99 | 1008.8 |
| 20260505195037 | 53 | 0 | 0.0 | 0.0 | 0.00 | 2.26 | 2.26 | 99 | 1008.9 |
| 20260505194536 | 53 | 0 | 0.0 | 0.0 | 0.00 | 2.26 | 2.26 | 99 | 1008.7 |
| 20260505194037 | 53 | 0 | 0.0 | 0.0 | 0.00 | 2.26 | 2.26 | 99 | 1008.8 |
| 20260505193537 | 53 | 0 | 0.0 | 0.0 | 0.00 | 2.26 | 2.26 | 99 | 1008.8 |
| 20260505192537 | 53 | 0 | 0.0 | 0.0 | 0.00 | 2.26 | 2.26 | 99 | 1008.5 |
| 20260505192037 | 53 | 0 | 0.0 | 0.0 | 0.00 | 2.26 | 2.26 | 99 | 1008.5 |
| 20260505191537 | 53 | 0 | 0.0 | 0.0 | 0.00 | 2.26 | 2.26 | 99 | 1008.5 |
| 20260505191037 | 53 | 0 | 0.0 | 0.0 | 0.00 | 2.26 | 2.26 | 99 | 1008.5 |
| 20260505190537 | 53 | 0 | 0.0 | 0.0 | 0.00 | 2.26 | 2.26 | 99 | 1008.6 |
| 20260505190037 | 53 | 0 | 0.0 | 0.0 | 0.00 | 2.26 | 2.26 | 99 | 1008.5 |
| 20260505185037 | 53 | 0 | 0.0 | 0.0 | 0.00 | 2.26 | 2.26 | 99 | 1008.5 |
| 20260505184537 | 53 | 0 | 0.0 | 0.0 | 0.00 | 2.26 | 2.26 | 99 | 1008.5 |
| 20260505184037 | 53 | 23 | 0.0 | 1.7 | 0.00 | 2.26 | 2.26 | 99 | 1008.6 |
| 20260505183537 | 53 | 23 | 0.0 | 1.7 | 0.01 | 2.27 | 2.26 | 99 | 1008.6 |
| 20260505183037 | 54 | 0 | 0.0 | 0.0 | 0.01 | 2.27 | 2.26 | 99 | 1008.4 |
| 20260505182537 | 54 | 0 | 0.0 | 0.0 | 0.01 | 2.27 | 2.26 | 99 | 1008.1 |
| 20260505182037 | 54 | 0 | 0.0 | 0.0 | 0.01 | 2.27 | 2.26 | 99 | 1008.1 |
| 20260505181537 | 54 | 0 | 0.0 | 0.0 | 0.01 | 2.28 | 2.26 | 99 | 1008.1 |
| 20260505180536 | 54 | 81 | 0.0 | 1.7 | 0.01 | 2.28 | 2.26 | 99 | 1008.2 |
| 20260505180037 | 54 | 90 | 0.0 | 1.7 | 0.01 | 2.28 | 2.26 | 99 | 1008.1 |
| 20260505175537 | 54 | 68 | 0.0 | 1.7 | 0.01 | 2.28 | 2.26 | 99 | 1008.1 |
| 20260505175037 | 54 | 68 | 0.0 | 1.7 | 0.01 | 2.28 | 2.26 | 99 | 1008.1 |
| 20260505174537 | 54 | 68 | 0.0 | 1.7 | 0.01 | 2.28 | 2.26 | 99 | 1007.9 |
| 20260505174036 | 54 | 68 | 0.0 | 1.7 | 0.01 | 2.28 | 2.26 | 99 | 1008.0 |
| 20260505173537 | 54 | 0 | 0.0 | 0.0 | 0.00 | 2.27 | 2.24 | 99 | 1008.1 |
| 20260505172537 | 54 | 0 | 0.0 | 0.0 | 0.00 | 2.27 | 2.24 | 99 | 1008.2 |
| 20260505172037 | 54 | 81 | 0.0 | 3.5 | 0.00 | 2.27 | 2.24 | 99 | 1008.0 |
| 20260505171537 | 54 | 66 | 0.0 | 3.5 | 0.00 | 2.27 | 2.24 | 99 | 1008.1 |
| 20260505170037 | 55 | 23 | 0.9 | 1.7 | 0.00 | 2.27 | 2.24 | 99 | 1008.1 |
| 20260505165537 | 55 | 45 | 0.0 | 1.7 | 0.00 | 2.27 | 2.24 | 99 | 1008.2 |
| 20260505165037 | 55 | 45 | 0.0 | 1.7 | 0.00 | 2.27 | 2.24 | 99 | 1008.1 |
| 20260505164537 | 55 | 54 | 0.0 | 1.7 | 0.00 | 2.28 | 2.24 | 99 | 1008.0 |
| 20260505164037 | 55 | 61 | 0.9 | 1.7 | 0.00 | 2.28 | 2.24 | 99 | 1008.2 |
| 20260505163037 | 55 | 90 | 0.0 | 1.7 | 0.01 | 2.28 | 2.24 | 99 | 1008.0 |
| 20260505162537 | 56 | 90 | 0.0 | 1.7 | 0.01 | 2.28 | 2.24 | 99 | 1008.0 |
| 20260505162037 | 56 | 0 | 0.0 | 0.0 | 0.01 | 2.28 | 2.24 | 99 | 1008.0 |